Time,TemperatureF,DewpointF,PressureIn,WindDirection,WindDirectionDegrees,WindSpeedMPH,WindSpeedGustMPH,Humidity,HourlyPrecipIn,Conditions,Clouds,dailyrainin,SoftwareType,DateUTC
2013-07-04 00:01:00,71.0,57.0,29.71,SE,138,0.0,1.0,61,0.00,,,0.09,,2013-07-04 06:01:00,
2013-07-04 00:11:00,71.0,57.0,29.70,SSE,156,0.0,0.0,61,0.00,,,0.09,,2013-07-04 06:11:00,
2013-07-04 00:22:00,71.0,57.0,29.70,SSE,156,0.0,0.0,61,0.00,,,0.09,,2013-07-04 06:22:00,
2013-07-04 00:34:00,70.0,57.0,29.71,NE,43,0.0,1.0,63,0.00,,,0.09,,2013-07-04 06:34:00,
2013-07-04 00:43:00,70.0,57.0,29.72,ESE,122,0.0,2.0,63,0.00,,,0.06,,2013-07-04 06:43:00,
2013-07-04 00:52:00,70.0,57.0,29.72,ESE,122,0.0,2.0,63,0.00,,,0.06,,2013-07-04 06:52:00,
2013-07-04 01:02:00,69.0,55.0,29.72,ESE,122,0.0,1.0,62,0.00,,,0.06,,2013-07-04 07:02:00,
2013-07-04 01:12:00,68.0,56.0,29.72,ESE,121,0.0,0.0,65,0.00,,,0.06,,2013-07-04 07:12:00,
2013-07-04 01:22:00,68.0,56.0,29.72,ESE,121,0.0,0.0,65,0.00,,,0.06,,2013-07-04 07:22:00,
2013-07-04 01:34:00,67.0,56.0,29.72,ESE,121,0.0,0.0,69,0.00,,,0.06,,2013-07-04 07:34:00,
2013-07-04 01:52:00,66.0,57.0,29.73,ESE,121,0.0,1.0,72,0.00,,,0.06,,2013-07-04 07:52:00,
2013-07-04 02:02:00,66.0,57.0,29.73,ESE,121,0.0,0.0,73,0.00,,,0.06,,2013-07-04 08:02:00,
2013-07-04 02:11:00,66.0,57.0,29.73,ESE,121,0.0,1.0,73,0.00,,,0.06,,2013-07-04 08:11:00,
2013-07-04 02:22:00,66.0,57.0,29.73,ESE,121,0.0,1.0,73,0.00,,,0.06,,2013-07-04 08:22:00,
2013-07-04 02:33:00,65.0,57.0,29.74,ESE,121,0.0,1.0,76,0.00,,,0.06,,2013-07-04 08:33:00,
2013-07-04 02:42:00,66.0,57.0,29.75,NNW,345,0.0,3.0,73,0.00,,,0.06,,2013-07-04 08:42:00,
2013-07-04 02:52:00,66.0,57.0,29.75,NNW,345,0.0,3.0,73,0.00,,,0.06,,2013-07-04 08:52:00,
2013-07-04 03:02:00,69.0,56.0,29.75,North,6,0.0,4.0,63,0.00,,,0.06,,2013-07-04 09:02:00,
2013-07-04 03:11:00,69.0,56.0,29.73,North,5,0.0,3.0,63,0.00,,,0.06,,2013-07-04 09:11:00,
2013-07-04 03:22:00,69.0,56.0,29.73,North,5,0.0,3.0,63,0.00,,,0.06,,2013-07-04 09:22:00,
2013-07-04 03:32:00,69.0,56.0,29.72,NNE,26,0.0,1.0,64,0.00,,,0.06,,2013-07-04 09:32:00,
2013-07-04 03:42:00,68.0,57.0,29.70,NE,39,0.0,0.0,69,0.00,,,0.06,,2013-07-04 09:42:00,
2013-07-04 03:52:00,68.0,57.0,29.70,NE,39,0.0,0.0,69,0.00,,,0.06,,2013-07-04 09:52:00,
2013-07-04 04:01:00,67.0,58.0,29.69,NE,39,0.0,0.0,72,0.00,,,0.06,,2013-07-04 10:01:00,
2013-07-04 04:11:00,67.0,59.0,29.68,NE,51,0.0,0.0,75,0.00,,,0.06,,2013-07-04 10:11:00,
2013-07-04 04:22:00,67.0,59.0,29.68,NE,51,0.0,0.0,75,0.00,,,0.06,,2013-07-04 10:22:00,
2013-07-04 04:33:00,66.0,59.0,29.68,NE,51,0.0,0.0,77,0.00,,,0.06,,2013-07-04 10:33:00,
2013-07-04 04:42:00,66.0,59.0,29.68,NE,51,0.0,0.0,78,0.00,,,0.06,,2013-07-04 10:42:00,
2013-07-04 04:53:00,66.0,59.0,29.68,NE,51,0.0,0.0,78,0.00,,,0.06,,2013-07-04 10:53:00,
2013-07-04 05:02:00,65.0,58.0,29.68,NE,51,0.0,0.0,77,0.00,,,0.06,,2013-07-04 11:02:00,
2013-07-04 05:11:00,65.0,58.0,29.68,NE,51,0.0,1.0,77,0.00,,,0.06,,2013-07-04 11:11:00,
2013-07-04 05:22:00,65.0,58.0,29.68,NE,51,0.0,1.0,77,0.00,,,0.06,,2013-07-04 11:22:00,
2013-07-04 05:33:00,64.0,58.0,29.69,NE,51,0.0,0.0,80,0.00,,,0.06,,2013-07-04 11:33:00,
2013-07-04 05:43:00,64.0,58.0,29.69,NE,51,0.0,0.0,81,0.00,,,0.06,,2013-07-04 11:43:00,
2013-07-04 05:53:00,64.0,58.0,29.69,NE,51,0.0,0.0,81,0.00,,,0.06,,2013-07-04 11:53:00,
2013-07-04 06:02:00,64.0,58.0,29.69,NE,51,0.0,0.0,80,0.00,,,0.06,,2013-07-04 12:02:00,
2013-07-04 06:11:00,63.0,57.0,29.69,NE,51,0.0,0.0,82,0.00,,,0.06,,2013-07-04 12:11:00,
2013-07-04 06:22:00,63.0,57.0,29.69,NE,51,0.0,0.0,82,0.00,,,0.06,,2013-07-04 12:22:00,
2013-07-04 06:33:00,63.0,58.0,29.69,NE,51,0.0,0.0,83,0.00,,,0.06,,2013-07-04 12:33:00,
2013-07-04 06:43:00,62.0,57.0,29.70,NE,51,0.0,0.0,85,0.00,,,0.06,,2013-07-04 12:43:00,
2013-07-04 06:52:00,62.0,57.0,29.70,NE,51,0.0,0.0,85,0.00,,,0.06,,2013-07-04 12:52:00,
2013-07-04 07:02:00,62.0,58.0,29.70,NE,51,0.0,0.0,88,0.00,,,0.06,,2013-07-04 13:02:00,
2013-07-04 07:12:00,63.0,59.0,29.71,NE,51,0.0,0.0,88,0.00,,,0.06,,2013-07-04 13:12:00,
2013-07-04 07:23:00,63.0,59.0,29.71,NE,51,0.0,0.0,88,0.00,,,0.06,,2013-07-04 13:23:00,
2013-07-04 07:33:00,63.0,59.0,29.71,NE,51,0.0,0.0,88,0.00,,,0.06,,2013-07-04 13:33:00,
2013-07-04 07:43:00,64.0,60.0,29.71,NE,51,0.0,0.0,86,0.00,,,0.06,,2013-07-04 13:43:00,
2013-07-04 07:53:00,64.0,60.0,29.71,NE,51,0.0,0.0,86,0.00,,,0.06,,2013-07-04 13:53:00,
2013-07-04 08:02:00,65.0,61.0,29.71,NE,51,0.0,0.0,88,0.00,,,0.06,,2013-07-04 14:02:00,
2013-07-04 08:11:00,66.0,62.0,29.72,NE,51,0.0,0.0,88,0.00,,,0.06,,2013-07-04 14:11:00,
2013-07-04 08:22:00,66.0,62.0,29.72,NE,51,0.0,0.0,88,0.00,,,0.06,,2013-07-04 14:22:00,
2013-07-04 08:33:00,67.0,61.0,29.72,NE,51,0.0,0.0,82,0.00,,,0.06,,2013-07-04 14:33:00,
2013-07-04 08:43:00,69.0,61.0,29.72,NE,51,0.0,0.0,77,0.00,,,0.06,,2013-07-04 14:43:00,
2013-07-04 08:53:00,69.0,61.0,29.72,NE,51,0.0,0.0,77,0.00,,,0.06,,2013-07-04 14:53:00,
2013-07-04 09:02:00,70.0,61.0,29.72,NE,51,0.0,0.0,74,0.00,,,0.06,,2013-07-04 15:02:00,
2013-07-04 09:11:00,71.0,62.0,29.73,ESE,107,0.0,1.0,74,0.00,,,0.06,,2013-07-04 15:11:00,
2013-07-04 09:23:00,71.0,62.0,29.73,ESE,107,0.0,1.0,74,0.00,,,0.06,,2013-07-04 15:23:00,
2013-07-04 09:33:00,74.0,61.0,29.72,SW,215,0.0,2.0,64,0.00,,,0.06,,2013-07-04 15:33:00,
2013-07-04 09:43:00,76.0,59.0,29.73,SSE,156,0.0,3.0,56,0.00,,,0.06,,2013-07-04 15:43:00,
2013-07-04 09:52:00,76.0,59.0,29.73,SSE,156,0.0,3.0,56,0.00,,,0.06,,2013-07-04 15:52:00,
2013-07-04 10:02:00,77.0,60.0,29.73,ESE,110,0.0,3.0,56,0.00,,,0.06,,2013-07-04 16:02:00,
2013-07-04 10:11:00,77.0,60.0,29.73,ESE,110,0.0,3.0,56,0.00,,,0.06,,2013-07-04 16:11:00,
2013-07-04 10:22:00,78.0,58.0,29.72,East,92,0.0,3.0,50,0.00,,,0.06,,2013-07-04 16:22:00,
2013-07-04 10:33:00,78.0,59.0,29.72,SE,128,0.0,4.0,52,0.00,,,0.06,,2013-07-04 16:33:00,
2013-07-04 10:42:00,78.0,59.0,29.72,SE,128,0.0,4.0,52,0.00,,,0.06,,2013-07-04 16:42:00,
2013-07-04 10:52:00,81.0,59.0,29.72,SSE,156,0.0,3.0,47,0.00,,,0.06,,2013-07-04 16:52:00,
2013-07-04 11:01:00,81.0,56.0,29.72,SE,142,1.0,3.0,42,0.00,,,0.06,,2013-07-04 17:01:00,
2013-07-04 11:12:00,81.0,56.0,29.72,SE,142,1.0,3.0,42,0.00,,,0.06,,2013-07-04 17:12:00,
2013-07-04 11:22:00,82.0,60.0,29.72,SE,131,1.0,4.0,47,0.00,,,0.06,,2013-07-04 17:22:00,
2013-07-04 11:33:00,83.0,58.0,29.72,South,176,0.0,4.0,42,0.00,,,0.06,,2013-07-04 17:33:00,
2013-07-04 11:43:00,83.0,58.0,29.72,South,176,0.0,4.0,42,0.00,,,0.06,,2013-07-04 17:43:00,
2013-07-04 11:53:00,85.0,58.0,29.71,SSE,159,2.0,5.0,40,0.00,,,0.06,,2013-07-04 17:53:00,
2013-07-04 12:01:00,86.0,57.0,29.71,ESE,106,1.0,6.0,37,0.00,,,0.06,,2013-07-04 18:01:00,
2013-07-04 12:11:00,86.0,57.0,29.71,ESE,106,1.0,6.0,37,0.00,,,0.06,,2013-07-04 18:11:00,
2013-07-04 12:22:00,85.0,55.0,29.71,SSE,165,0.0,6.0,36,0.00,,,0.06,,2013-07-04 18:22:00,
2013-07-04 12:33:00,87.0,58.0,29.70,East,99,1.0,6.0,37,0.00,,,0.06,,2013-07-04 18:33:00,
2013-07-04 12:43:00,87.0,58.0,29.70,East,99,1.0,6.0,37,0.00,,,0.06,,2013-07-04 18:43:00,
2013-07-04 12:52:00,88.0,57.0,29.70,South,171,1.0,3.0,35,0.00,,,0.06,,2013-07-04 18:52:00,
2013-07-04 13:01:00,89.0,59.0,29.69,East,96,0.0,6.0,36,0.00,,,0.06,,2013-07-04 19:01:00,
2013-07-04 13:12:00,89.0,59.0,29.69,East,96,0.0,6.0,36,0.00,,,0.06,,2013-07-04 19:12:00,
2013-07-04 13:22:00,89.0,58.0,29.68,NE,39,0.0,3.0,35,0.00,,,0.06,,2013-07-04 19:22:00,
2013-07-04 13:33:00,91.0,56.0,29.67,ESE,103,1.0,5.0,31,0.00,,,0.06,,2013-07-04 19:33:00,
2013-07-04 13:43:00,91.0,56.0,29.67,ESE,103,1.0,5.0,31,0.00,,,0.06,,2013-07-04 19:43:00,
2013-07-04 13:53:00,91.0,56.0,29.67,NNE,29,1.0,6.0,31,0.00,,,0.06,,2013-07-04 19:53:00,
2013-07-04 14:01:00,92.0,57.0,29.66,SSE,159,1.0,4.0,31,0.00,,,0.06,,2013-07-04 20:01:00,
2013-07-04 14:11:00,92.0,57.0,29.66,SSE,159,1.0,4.0,31,0.00,,,0.06,,2013-07-04 20:11:00,
2013-07-04 14:22:00,92.0,56.0,29.65,ESE,115,0.0,5.0,30,0.00,,,0.06,,2013-07-04 20:22:00,
2013-07-04 14:33:00,93.0,57.0,29.65,ESE,116,0.0,3.0,30,0.00,,,0.06,,2013-07-04 20:33:00,
2013-07-04 14:42:00,93.0,57.0,29.65,ESE,116,0.0,3.0,30,0.00,,,0.06,,2013-07-04 20:42:00,
2013-07-04 14:53:00,94.0,56.0,29.64,East,92,0.0,2.0,28,0.00,,,0.06,,2013-07-04 20:53:00,
2013-07-04 15:01:00,95.0,59.0,29.62,SE,133,0.0,4.0,30,0.00,,,0.06,,2013-07-04 21:01:00,
2013-07-04 15:11:00,95.0,59.0,29.62,SE,133,0.0,4.0,30,0.00,,,0.06,,2013-07-04 21:11:00,
2013-07-04 15:22:00,96.0,59.0,29.61,SW,219,0.0,1.0,30,0.00,,,0.06,,2013-07-04 21:22:00,
2013-07-04 15:53:00,96.0,59.0,29.60,NE,34,0.0,3.0,29,0.00,,,0.06,,2013-07-04 21:53:00,
2013-07-04 16:01:00,95.0,60.0,29.59,East,85,0.0,2.0,32,0.00,,,0.06,,2013-07-04 22:01:00,
2013-07-04 16:11:00,95.0,60.0,29.59,East,85,0.0,2.0,32,0.00,,,0.06,,2013-07-04 22:11:00,
2013-07-04 16:22:00,97.0,54.0,29.59,South,179,0.0,2.0,24,0.00,,,0.06,,2013-07-04 22:22:00,
2013-07-04 16:33:00,94.0,56.0,29.59,SSW,210,0.0,2.0,28,0.00,,,0.06,,2013-07-04 22:33:00,
2013-07-04 16:43:00,94.0,56.0,29.59,SSW,210,0.0,2.0,28,0.00,,,0.06,,2013-07-04 22:43:00,
2013-07-04 16:52:00,97.0,55.0,29.58,WSW,255,1.0,6.0,25,0.00,,,0.06,,2013-07-04 22:52:00,
2013-07-04 17:01:00,94.0,59.0,29.57,West,260,0.0,2.0,31,0.00,,,0.06,,2013-07-04 23:01:00,
2013-07-04 17:12:00,94.0,59.0,29.57,West,260,0.0,2.0,31,0.00,,,0.06,,2013-07-04 23:12:00,
2013-07-04 17:23:00,93.0,58.0,29.57,WSW,246,0.0,3.0,31,0.00,,,0.06,,2013-07-04 23:23:00,
2013-07-04 17:33:00,93.0,58.0,29.56,WSW,252,0.0,3.0,31,0.00,,,0.06,,2013-07-04 23:33:00,
2013-07-04 17:42:00,93.0,58.0,29.56,WSW,252,0.0,3.0,31,0.00,,,0.06,,2013-07-04 23:42:00,
2013-07-04 17:52:00,91.0,57.0,29.56,SW,218,0.0,2.0,32,0.00,,,0.06,,2013-07-04 23:52:00,
2013-07-04 18:01:00,90.0,59.0,29.57,West,278,0.0,1.0,35,0.00,,,0.06,,2013-07-05 00:01:00,
2013-07-04 18:11:00,90.0,59.0,29.57,West,278,0.0,1.0,35,0.00,,,0.06,,2013-07-05 00:11:00,
2013-07-04 18:22:00,89.0,60.0,29.57,SE,145,0.0,3.0,38,0.00,,,0.06,,2013-07-05 00:22:00,
2013-07-04 18:32:00,90.0,58.0,29.57,SW,217,1.0,5.0,34,0.00,,,0.06,,2013-07-05 00:32:00,
2013-07-04 18:43:00,90.0,58.0,29.57,SW,217,1.0,5.0,34,0.00,,,0.06,,2013-07-05 00:43:00,
2013-07-04 18:52:00,89.0,58.0,29.58,WSW,245,0.0,6.0,35,0.00,,,0.06,,2013-07-05 00:52:00,
2013-07-04 19:01:00,89.0,58.0,29.58,WSW,245,0.0,6.0,35,0.00,,,0.06,,2013-07-05 01:01:00,
2013-07-04 19:11:00,89.0,58.0,29.58,WSW,245,0.0,6.0,35,0.00,,,0.06,,2013-07-05 01:11:00,
2013-07-04 19:22:00,87.0,58.0,29.59,SW,222,0.0,2.0,37,0.00,,,0.06,,2013-07-05 01:22:00,
2013-07-04 19:32:00,87.0,58.0,29.59,SW,222,0.0,2.0,37,0.00,,,0.06,,2013-07-05 01:32:00,
2013-07-04 19:42:00,87.0,58.0,29.59,SW,222,0.0,2.0,37,0.00,,,0.06,,2013-07-05 01:42:00,
2013-07-04 20:02:00,83.0,58.0,29.59,NNW,329,0.0,0.0,42,0.00,,,0.06,,2013-07-05 02:02:00,
2013-07-04 20:11:00,83.0,57.0,29.59,NNW,329,0.0,0.0,41,0.00,,,0.06,,2013-07-05 02:11:00,
2013-07-04 20:21:00,83.0,57.0,29.59,NNW,329,0.0,0.0,41,0.00,,,0.06,,2013-07-05 02:21:00,
2013-07-04 20:32:00,83.0,57.0,29.59,NNW,329,0.0,0.0,41,0.00,,,0.06,,2013-07-05 02:32:00,
2013-07-04 20:42:00,83.0,57.0,29.59,NNW,329,0.0,0.0,41,0.00,,,0.06,,2013-07-05 02:42:00,
2013-07-04 20:52:00,81.0,56.0,29.59,NNW,329,0.0,0.0,42,0.00,,,0.06,,2013-07-05 02:52:00,
2013-07-04 21:02:00,81.0,56.0,29.59,NNW,329,0.0,0.0,42,0.00,,,0.06,,2013-07-05 03:02:00,
2013-07-04 21:11:00,81.0,56.0,29.59,NNW,329,0.0,0.0,42,0.00,,,0.06,,2013-07-05 03:11:00,
2013-07-04 22:01:00,79.0,55.0,29.62,ESE,114,0.0,0.0,44,0.00,,,0.06,,2013-07-05 04:01:00,
2013-07-04 22:11:00,79.0,55.0,29.62,ESE,114,0.0,0.0,44,0.00,,,0.06,,2013-07-05 04:11:00,
2013-07-04 22:43:00,78.0,56.0,29.62,ESE,114,0.0,0.0,47,0.00,,,0.06,,2013-07-05 04:43:00,
2013-07-04 22:53:00,77.0,53.0,29.64,NW,309,0.0,0.0,43,0.00,,,0.00,,2013-07-05 04:53:00,
2013-07-04 23:01:00,77.0,53.0,29.64,NW,309,0.0,0.0,43,0.00,,,0.00,,2013-07-05 05:01:00,
2013-07-04 23:12:00,76.0,53.0,29.65,NW,309,0.0,0.0,45,0.00,,,0.00,,2013-07-05 05:12:00,
2013-07-04 23:22:00,76.0,53.0,29.65,NW,309,0.0,0.0,45,0.00,,,0.00,,2013-07-05 05:22:00,
2013-07-04 23:33:00,74.0,57.0,29.65,NW,309,0.0,1.0,55,0.00,,,0.00,,2013-07-05 05:33:00,
2013-07-04 23:43:00,74.0,57.0,29.65,NW,309,0.0,1.0,55,0.00,,,0.00,,2013-07-05 05:43:00,
2013-07-04 23:52:00,74.0,56.0,29.65,NW,309,0.0,0.0,53,0.00,,,0.00,,2013-07-05 05:52:00,